Teresina Aeroporto, Brazil

6:00 PM -03 on May 23, 2017 (GMT -0300)
Senador Petronio Portella

Weather History for SBTE - August, 2014

Change the Weather History Date:

Friday, August 29, 2014

  Actual Average Record
Temperature  
Mean Temperature 88 °F -  
Max Temperature 101 °F 95 °F 101 °F (2012)
Min Temperature 76 °F 73 °F 71 °F (1999)
Cooling Degree Days 24    
Growing Degree Days 38 (Base 50)    
Moisture  
Dew Point 69 °F    
Average Humidity 58    
Maximum Humidity 94    
Minimum Humidity 22    
Precipitation  
Precipitation 0.00 in - - ()
Sea Level Pressure  
Sea Level Pressure 29.88 in    
Wind  
Wind Speed 3 mph ()    
Max Wind Speed 14 mph    
Max Gust Speed -    
Visibility 8.1 miles    
Events      
Averages and records for this station are not official NWS values.
T = Trace of Precipitation, MM = Missing Value Source: Averaged Metar Reports

Daily Weather History Graph

Daily Weather History Graph

Search for Another Location

Airport or City:

Trip Planner

Search our weather history database for the weather conditions in past years. The results will help you decide how hot, cold, wet, or windy it might be!

Date:

Astronomy

Aug. 29, 2014 Rise Set
Actual Time 5:52 AM -03 5:52 PM -03
Civil Twilight 5:31 AM -03 6:13 PM -03
Nautical Twilight 5:06 AM -03 6:37 PM -03
Astronomical Twilight 4:42 AM -03 7:01 PM -03
Moon 8:28 AM -03 (8/29) 8:56 PM -03 (8/29)
Length of Visible Light 12h 42m
Length of Day
12h 00m
Waxing Crescent, 14% of the Moon is Illuminated
Aug 29
Waxing Crescent
Sep 2
First Quarter
Sep 8
Full
Sep 15
Last Quarter
Sep 24
New

Hourly Weather History & Observations

Time (-03) Temp. Heat Index Dew Point Humidity Pressure Visibility Wind Dir Wind Speed Gust Speed Precip Events Conditions
12:00 AM 80.6 °F 84.6 °F 71.6 °F 74% 29.89 in - North 6.9 mph - N/A   Clear
1:00 AM 78.8 °F - 73.4 °F 83% 29.89 in - North 2.3 mph - N/A   Clear
2:00 AM 78.8 °F - 73.4 °F 83% 29.86 in - NNW 2.3 mph - N/A   Clear
3:00 AM 77 °F - 74 °F 90% 29.88 in 12 mi North 2.3 mph - -  
3:00 AM 77.0 °F - 75.2 °F 94% 29.89 in - North 2.3 mph - N/A   Clear
4:00 AM 77.0 °F - 73.4 °F 89% 29.89 in - North 2.3 mph - N/A   Clear
5:00 AM 77.0 °F - 75.2 °F 94% 29.89 in - Calm Calm - N/A   Clear
6:00 AM 77.0 °F - 75.2 °F 94% 29.92 in - Calm Calm - N/A   Clear
7:00 AM 78.8 °F - 75.2 °F 89% 29.95 in 6.2 mi Calm Calm - N/A   Partly Cloudy
8:00 AM 82.4 °F 89.5 °F 75.2 °F 79% 29.95 in - NE 2.3 mph - N/A   Clear
9:00 AM 86 °F - 74 °F 59% 29.96 in 12 mi NE 2.3 mph - -  
9:00 AM 86.0 °F 93.4 °F 73.4 °F 66% 29.95 in - NE 2.3 mph - N/A   Clear
10:00 AM 89.6 °F 96.2 °F 71.6 °F 55% 29.95 in - East 6.9 mph - N/A   Clear
11:00 AM 93.2 °F 97.7 °F 68.0 °F 44% 29.92 in 6.2 mi SSE 6.9 mph - N/A   Partly Cloudy
12:00 PM 96.8 °F 101.8 °F 68.0 °F 39% 29.89 in 6.2 mi ESE 6.9 mph - N/A   Partly Cloudy
1:00 PM 96.8 °F 101.8 °F 68.0 °F 39% 29.89 in 6.2 mi SSE 4.6 mph - N/A   Partly Cloudy
2:00 PM 98.6 °F 102.8 °F 66.2 °F 35% 29.86 in 6.2 mi ESE 3.5 mph - N/A   Partly Cloudy
3:00 PM 100 °F - 64 °F 22% 29.83 in 12 mi SSE 5.8 mph - -   Scattered Clouds
3:00 PM 100.4 °F 103.6 °F 64.4 °F 31% 29.83 in 6.2 mi SSE 5.8 mph - N/A   Partly Cloudy
4:00 PM 102.2 °F 104.2 °F 62.6 °F 27% 29.83 in 6.2 mi SSW 4.6 mph - N/A   Partly Cloudy
5:00 PM 100.4 °F 102.4 °F 62.6 °F 29% 29.80 in 6.2 mi South 2.3 mph - N/A   Partly Cloudy
6:00 PM 98.6 °F 100.0 °F 62.6 °F 30% 29.80 in - Calm Calm - N/A   Clear
7:00 PM 91.4 °F 95.4 °F 68.0 °F 46% 29.83 in - NNW 2.3 mph - N/A   Clear
8:00 PM 91.4 °F 94.0 °F 66.2 °F 43% 29.83 in - SSW 13.8 mph - N/A   Clear
9:00 PM 89 °F - 62 °F 31% 29.86 in 12 mi Calm Calm - -  
9:00 PM 89.6 °F 90.1 °F 62.6 °F 40% 29.86 in - Calm Calm - N/A   Clear
10:00 PM 87.8 °F 90.4 °F 66.2 °F 49% 29.89 in - Calm Calm - N/A   Clear
11:00 PM 86.0 °F 90.4 °F 69.8 °F 58% 29.92 in - Calm Calm - N/A   Clear